Location: 22
(39.7117°N, 89.5929°W)
Time: 19:01:21
(UTC-05:00)

Gurwin Techsat 1B - Pass Details

Date: 04 April 2023
Orbit: 811 x 813 km, 98.9° (Epoch: 06 June)

Event Time Altitude Azimuth Distance (km) Brightness Sun altitude
Rises 04:18:07 0° 9° (N) 3,346 12.4 -26.0°
Reaches altitude 10° 04:20:30 10° 5° (N) 2,410 11.5 -25.6°
Enters shadow 04:25:41 56° 289° (WNW) 960 8.7 -24.7°
